• In Italy
  • List of Countries
  • For 7 days
  • Water Temperature
  • Satellite Maps
  • Weather Map
  • Weather Widgets
  • user-avatar
    Login

    Hourly Weather Tarin Kowt

    Today, 13 December, Wednesday

    Time Temperature Precipitation Wind Pressure Humidity
    00:00 -1°C° 0 mm 0 mps 614 mmHg 35%
    01:00 -2°C° 0 mm 0 mps 614 mmHg 36%
    02:00 -1°C° 0 mm 1 mps 614 mmHg 36%
    03:00 -1°C° 0 mm 1 mps 614 mmHg 37%
    04:00 -2°C° 0 mm 1 mps 614 mmHg 37%
    05:00 -2°C° 0 mm 1 mps 614 mmHg 38%
    06:00 -2°C° 0 mm 1 mps 614 mmHg 38%
    07:00 -2°C° 0 mm 1 mps 615 mmHg 38%
    08:00 0°C° 0 mm 1 mps 615 mmHg 33%
    09:00 +2°C° 0 mm 1 mps 616 mmHg 29%
    10:00 +4°C° 0 mm 1 mps 617 mmHg 25%
    11:00 +4°C° 0 mm 1 mps 617 mmHg 24%
    12:00 +4°C° 0 mm 2 mps 616 mmHg 23%
    13:00 +4°C° 0 mm 2 mps 616 mmHg 22%
    14:00 +4°C° 0 mm 2 mps 616 mmHg 22%
    15:00 +4°C° 0 mm 2 mps 616 mmHg 23%
    16:00 +3°C° 0 mm 2 mps 615 mmHg 23%
    17:00 +3°C° 0 mm 1 mps 615 mmHg 26%
    18:00 +2°C° 0 mm 1 mps 615 mmHg 28%
    19:00 +1°C° 0 mm 1 mps 615 mmHg 31%
    20:00 +1°C° 0 mm 1 mps 615 mmHg 32%
    21:00 0°C° 0 mm 1 mps 615 mmHg 33%
    22:00 0°C° 0 mm 1 mps 615 mmHg 34%
    23:00 -1°C° 0 mm 1 mps 615 mmHg 34%

    Tomorrow, 14 December, Thursday

    Time Temperature Precipitation Wind Pressure Humidity
    00:00 -1°C° 0 mm 1 mps 615 mmHg 35%
    01:00 -1°C° 0 mm 1 mps 615 mmHg 36%
    02:00 -2°C° 0 mm 1 mps 615 mmHg 36%
    03:00 -2°C° 0 mm 1 mps 615 mmHg 37%
    04:00 -2°C° 0 mm 1 mps 615 mmHg 38%
    05:00 -2°C° 0 mm 1 mps 615 mmHg 38%
    06:00 -2°C° 0 mm 1 mps 616 mmHg 38%
    07:00 -2°C° 0 mm 1 mps 616 mmHg 38%
    08:00 -1°C° 0 mm 1 mps 617 mmHg 33%
    09:00 +1°C° 0 mm 1 mps 618 mmHg 29%
    10:00 +3°C° 0 mm 1 mps 619 mmHg 25%
    11:00 +3°C° 0 mm 1 mps 619 mmHg 25%
    12:00 +3°C° 0 mm 1 mps 619 mmHg 25%
    13:00 +4°C° 0 mm 1 mps 618 mmHg 24%
    14:00 +4°C° 0 mm 1 mps 618 mmHg 25%
    15:00 +3°C° 0 mm 1 mps 618 mmHg 26%
    16:00 +3°C° 0 mm 1 mps 618 mmHg 26%
    17:00 +2°C° 0 mm 1 mps 618 mmHg 29%
    18:00 +1°C° 0 mm 1 mps 618 mmHg 31%
    19:00 0°C° 0 mm 1 mps 618 mmHg 34%
    20:00 0°C° 0 mm 1 mps 618 mmHg 34%
    21:00 0°C° 0 mm 1 mps 618 mmHg 35%
    22:00 -1°C° 0 mm 1 mps 618 mmHg 36%
    23:00 -1°C° 0 mm 1 mps 618 mmHg 37%

    Day after tomorrow, 15 December, Friday

    Time Temperature Precipitation Wind Pressure Humidity
    00:00 -1°C° 0 mm 1 mps 617 mmHg 37%
    01:00 -2°C° 0 mm 1 mps 617 mmHg 38%
    02:00 -2°C° 0 mm 1 mps 617 mmHg 38%
    03:00 -2°C° 0 mm 1 mps 617 mmHg 39%
    04:00 -2°C° 0 mm 1 mps 617 mmHg 39%
    05:00 -2°C° 0 mm 1 mps 617 mmHg 39%
    06:00 -4°C° 0 mm 2 mps 618 mmHg 39%
    07:00 -4°C° 0 mm 2 mps 618 mmHg 39%
    08:00 -2°C° 0 mm 2 mps 619 mmHg 34%
    09:00 +1°C° 0 mm 2 mps 620 mmHg 30%
    10:00 +2°C° 0 mm 2 mps 621 mmHg 26%
    11:00 +4°C° 0 mm 1 mps 620 mmHg 25%
    12:00 +5°C° 0 mm 1 mps 620 mmHg 24%
    13:00 +5°C° 0 mm 1 mps 619 mmHg 23%
    14:00 +5°C° 0 mm 1 mps 619 mmHg 24%
    15:00 +4°C° 0 mm 0 mps 619 mmHg 24%
    16:00 +4°C° 0 mm 0 mps 619 mmHg 25%
    17:00 +4°C° 0 mm 1 mps 619 mmHg 27%
    18:00 +3°C° 0 mm 1 mps 619 mmHg 29%
    19:00 +2°C° 0 mm 1 mps 619 mmHg 31%
    20:00 +2°C° 0 mm 1 mps 619 mmHg 32%
    21:00 +2°C° 0 mm 1 mps 619 mmHg 33%
    22:00 -1°C° 0 mm 2 mps 619 mmHg 34%
    23:00 -1°C° 0 mm 2 mps 619 mmHg 35%

    16 December, Saturday

    Time Temperature Precipitation Wind Pressure Humidity
    00:00 -1°C° 0 mm 2 mps 619 mmHg 36%
    01:00 -1°C° 0 mm 2 mps 619 mmHg 37%
    02:00 -1°C° 0 mm 2 mps 619 mmHg 38%
    03:00 -2°C° 0 mm 2 mps 619 mmHg 38%
    04:00 -2°C° 0 mm 2 mps 618 mmHg 39%
    05:00 -2°C° 0 mm 2 mps 619 mmHg 39%
    06:00 -2°C° 0 mm 2 mps 619 mmHg 39%
    07:00 -2°C° 0 mm 2 mps 619 mmHg 39%
    08:00 +1°C° 0 mm 2 mps 620 mmHg 34%
    09:00 +3°C° 0 mm 2 mps 621 mmHg 30%
    10:00 +6°C° 0 mm 1 mps 622 mmHg 25%
    11:00 +7°C° 0 mm 1 mps 621 mmHg 23%
    12:00 +8°C° 0 mm 1 mps 621 mmHg 22%
    13:00 +7°C° 0 mm 0 mps 620 mmHg 20%
    14:00 +7°C° 0 mm 0 mps 620 mmHg 21%
    15:00 +7°C° 0 mm 0 mps 620 mmHg 22%
    16:00 +7°C° 0 mm 0 mps 620 mmHg 23%
    17:00 +6°C° 0 mm 1 mps 620 mmHg 25%
    18:00 +5°C° 0 mm 1 mps 620 mmHg 27%
    19:00 +4°C° 0 mm 1 mps 620 mmHg 29%
    20:00 +4°C° 0 mm 1 mps 620 mmHg 29%
    21:00 +3°C° 0 mm 1 mps 620 mmHg 30%
    22:00 +3°C° 0 mm 1 mps 620 mmHg 30%
    23:00 +3°C° 0 mm 1 mps 620 mmHg 30%

    17 December, Sunday

    Time Temperature Precipitation Wind Pressure Humidity
    00:00 +2°C° 0 mm 2 mps 619 mmHg 31%
    01:00 +2°C° 0 mm 2 mps 619 mmHg 31%
    02:00 +1°C° 0 mm 2 mps 619 mmHg 31%
    03:00 +1°C° 0 mm 2 mps 619 mmHg 31%
    04:00 +1°C° 0 mm 2 mps 619 mmHg 31%
    05:00 +1°C° 0 mm 2 mps 619 mmHg 31%
    06:00 +2°C° 0 mm 2 mps 620 mmHg 30%
    07:00 +2°C° 0 mm 2 mps 620 mmHg 29%
    08:00 +4°C° 0 mm 2 mps 621 mmHg 26%
    09:00 +6°C° 0 mm 2 mps 622 mmHg 22%
    10:00 +8°C° 0 mm 2 mps 623 mmHg 19%
    11:00 +10°C° 0 mm 1 mps 622 mmHg 18%
    12:00 +10°C° 0 mm 1 mps 622 mmHg 17%
    13:00 +11°C° 0 mm 1 mps 622 mmHg 16%
    14:00 +11°C° 0 mm 1 mps 621 mmHg 17%
    15:00 +10°C° 0 mm 1 mps 621 mmHg 18%
    16:00 +10°C° 0 mm 1 mps 621 mmHg 19%
    17:00 +9°C° 0 mm 1 mps 621 mmHg 20%
    18:00 +8°C° 0 mm 1 mps 620 mmHg 22%
    19:00 +7°C° 0 mm 1 mps 620 mmHg 24%
    20:00 +6°C° 0 mm 1 mps 620 mmHg 24%
    21:00 +5°C° 0 mm 2 mps 620 mmHg 25%
    22:00 +5°C° 0 mm 2 mps 620 mmHg 26%
    23:00 +5°C° 0 mm 2 mps 620 mmHg 26%

    18 December, Monday

    Time Temperature Precipitation Wind Pressure Humidity
    00:00 +4°C° 0 mm 2 mps 620 mmHg 27%
    01:00 +4°C° 0 mm 2 mps 619 mmHg 27%
    02:00 +4°C° 0 mm 2 mps 619 mmHg 28%
    03:00 +4°C° 0 mm 2 mps 619 mmHg 28%
    04:00 +3°C° 0 mm 2 mps 619 mmHg 29%
    05:00 +3°C° 0 mm 2 mps 619 mmHg 29%
    06:00 +3°C° 0 mm 2 mps 619 mmHg 29%
    07:00 +3°C° 0 mm 2 mps 620 mmHg 29%
    08:00 +5°C° 0 mm 2 mps 620 mmHg 26%
    09:00 +8°C° 0 mm 1 mps 621 mmHg 22%
    10:00 +10°C° 0 mm 1 mps 622 mmHg 19%
    11:00 +11°C° 0 mm 1 mps 622 mmHg 18%
    12:00 +12°C° 0 mm 1 mps 622 mmHg 17%
    13:00 +12°C° 0 mm 1 mps 621 mmHg 16%
    14:00 +12°C° 0 mm 1 mps 621 mmHg 17%
    15:00 +11°C° 0 mm 1 mps 621 mmHg 18%
    16:00 +11°C° 0 mm 1 mps 620 mmHg 18%
    17:00 +10°C° 0 mm 1 mps 620 mmHg 20%
    18:00 +8°C° 0 mm 0 mps 620 mmHg 21%
    19:00 +7°C° 0 mm 0 mps 620 mmHg 22%
    20:00 +7°C° 0 mm 0 mps 620 mmHg 23%
    21:00 +8°C° 0 mm 1 mps 620 mmHg 23%
    22:00 +7°C° 0 mm 1 mps 620 mmHg 24%
    23:00 +7°C° 0 mm 1 mps 620 mmHg 24%
    Show more